This demonstration page uses our WeatherBlox Daily Observations layout. Learn more.

41.55636, -103.73856

Hourly Observations for December 13, 2016

Temp ( °F °C ) Dew Point ( °F °C ) Humidity (%) Winds ( mph kmh ) Pressure ( in mb ) Visibility ( mi km ) Precip ( " mm )
12:53 am 00:53 Clear 4 -15.6 -3 -19.4 73 73 ESE 5 7 30.22 1024 10 16.0934 0 0
1:53 am 01:53 Clear 3 -16.1 -4 -20 72 72 ENE 3 6 30.24 1024 10 16.0934 0 0
2:53 am 02:53 Clear 1 -17.2 -6 -21.1 72 72 NE 3 6 30.28 1025 10 16.0934 0 0
3:53 am 03:53 Partly Cloudy 0 -17.8 -6 -21.1 76 76 NNW 3 6 30.28 1026 10 16.0934 0 0
4:53 am 04:53 Mostly Clear 0 -17.8 -6 -21.1 76 76 N 5 7 30.31 1026 10 16.0934 0 0
5:53 am 05:53 Clear 0 -17.8 -6 -21.1 76 76 S 6 9 30.33 1027 10 16.0934 0 0
6:53 am 06:53 Clear -2 -18.9 -9 -22.8 72 72 ESE 3 6 30.35 1028 10 16.0934 0 0
7:53 am 07:53 Sunny -1 -18.3 -8 -22.2 72 72 Calm 30.35 1028 10 16.0934 0 0
8:53 am 08:53 Sunny 6 -14.4 -1 -18.3 73 73 Calm 30.34 1027 10 16.0934 0 0
9:53 am 09:53 Sunny 10 -12.2 1 -17.2 67 67 Calm 30.33 1027 10 16.0934 0 0
10:53 am 10:53 Sunny 14 -10 3 -16.1 61 61 Calm 30.28 1025 10 16.0934 0 0
11:53 am 11:53 Sunny 21 -6.1 5 -15 50 50 Calm 30.22 1023 10 16.0934 0 0
12:53 pm 12:53 Sunny 25 -3.9 7 -13.9 46 46 VRB 3 6 30.17 1022 10 16.0934 0 0
1:53 pm 13:53 Sunny 30 -1.1 8 -13.3 39 39 WSW 6 9 30.13 1020 10 16.0934 0 0
2:53 pm 14:53 Sunny 30 -1.1 9 -12.8 41 41 Calm 30.12 1020 10 16.0934 0 0
3:53 pm 15:53 Sunny 34 1.1 6 -14.4 31 31 W 10 17 30.11 1020 10 16.0934 0 0
4:53 pm 16:53 Clear 30 -1.1 7 -13.9 38 38 WNW 8 13 30.12 1020 10 16.0934 0 0
5:53 pm 17:53 Clear 19 -7.2 4 -15.6 51 51 N 7 11 30.16 1021 10 16.0934 0 0
6:53 pm 18:53 Clear 16 -8.9 4 -15.6 59 59 N 6 9 30.18 1022 10 16.0934 0 0
7:53 pm 19:53 Clear 20 -6.7 8 -13.3 60 60 NW 7 11 30.17 1022 10 16.0934 0 0
8:53 pm 20:53 Clear 16 -8.9 7 -13.9 67 67 NNW 7 11 30.17 1022 10 16.0934 0 0
9:53 pm 21:53 Clear 15 -9.4 6 -14.4 67 67 N 9 15 30.18 1022 10 16.0934 0 0
10:53 pm 22:53 Clear 15 -9.4 6 -14.4 67 67 ENE 9 15 30.24 1024 10 16.0934 0 0
11:53 pm 23:53 Clear 11 -11.7 4 -15.6 73 73 N 7 11 30.29 1026 10 16.0934 0 0

Powered by AerisWeather